Time,TemperatureF,DewpointF,PressureIn,WindDirection,WindDirectionDegrees,WindSpeedMPH,WindSpeedGustMPH,Humidity,HourlyPrecipIn,Conditions,Clouds,dailyrainin,SoftwareType,DateUTC
2013-07-05 00:08:00,72.5,71.0,30.14,ESE,106,0.0,1.0,96,0.00,,,0.00,weatherlink.com 1.10,2013-07-05 04:08:00,
2013-07-05 00:24:00,72.2,71.0,30.15,ESE,106,0.0,1.0,96,0.00,,,0.00,weatherlink.com 1.10,2013-07-05 04:24:00,
2013-07-05 00:39:00,72.0,71.0,30.14,ESE,117,1.0,3.0,96,0.00,,,0.00,weatherlink.com 1.10,2013-07-05 04:39:00,
2013-07-05 00:54:00,71.7,71.0,30.14,ESE,118,1.0,1.0,97,0.00,,,0.00,weatherlink.com 1.10,2013-07-05 04:54:00,
2013-07-05 01:09:00,71.5,71.0,30.14,ESE,118,1.0,2.0,97,0.00,,,0.00,weatherlink.com 1.10,2013-07-05 05:09:00,
2013-07-05 01:24:00,71.4,71.0,30.14,ESE,118,2.0,2.0,97,0.00,,,0.00,weatherlink.com 1.10,2013-07-05 05:24:00,
2013-07-05 01:39:00,71.3,70.0,30.14,ESE,118,0.0,0.0,97,0.00,,,0.00,weatherlink.com 1.10,2013-07-05 05:39:00,
2013-07-05 01:54:00,71.1,70.0,30.13,ESE,118,0.0,0.0,97,0.00,,,0.00,weatherlink.com 1.10,2013-07-05 05:54:00,
2013-07-05 02:09:00,70.6,70.0,30.13,ESE,118,0.0,1.0,97,0.00,,,0.00,weatherlink.com 1.10,2013-07-05 06:09:00,
2013-07-05 02:24:00,70.5,70.0,30.13,ESE,118,0.0,2.0,97,0.00,,,0.00,weatherlink.com 1.10,2013-07-05 06:24:00,
2013-07-05 02:39:00,70.3,69.0,30.13,ESE,118,0.0,1.0,97,0.00,,,0.00,weatherlink.com 1.10,2013-07-05 06:39:00,
2013-07-05 02:54:00,70.1,69.0,30.14,East,95,0.0,1.0,97,0.00,,,0.00,weatherlink.com 1.10,2013-07-05 06:54:00,
2013-07-05 03:09:00,70.1,69.0,30.14,East,95,1.0,2.0,97,0.00,,,0.00,weatherlink.com 1.10,2013-07-05 07:09:00,
2013-07-05 03:24:00,69.9,69.0,30.14,East,95,0.0,1.0,98,0.00,,,0.00,weatherlink.com 1.10,2013-07-05 07:24:00,
2013-07-05 03:39:00,69.6,69.0,30.14,East,95,0.0,1.0,97,0.00,,,0.00,weatherlink.com 1.10,2013-07-05 07:39:00,
2013-07-05 03:54:00,69.5,69.0,30.13,East,95,0.0,1.0,98,0.00,,,0.00,weatherlink.com 1.10,2013-07-05 07:54:00,
2013-07-05 04:09:00,70.1,70.0,30.14,East,95,0.0,2.0,98,0.00,,,0.00,weatherlink.com 1.10,2013-07-05 08:09:00,
2013-07-05 04:24:00,70.4,70.0,30.13,East,95,0.0,0.0,97,0.00,,,0.00,weatherlink.com 1.10,2013-07-05 08:24:00,
2013-07-05 04:39:00,70.4,70.0,30.13,East,95,0.0,0.0,97,0.00,,,0.00,weatherlink.com 1.10,2013-07-05 08:39:00,
2013-07-05 04:54:00,70.7,70.0,30.13,East,95,1.0,2.0,97,0.00,,,0.00,weatherlink.com 1.10,2013-07-05 08:54:00,
2013-07-05 05:09:00,71.2,70.0,30.14,ESE,113,0.0,2.0,97,0.00,,,0.00,weatherlink.com 1.10,2013-07-05 09:09:00,
2013-07-05 05:24:00,71.4,71.0,30.14,ESE,113,0.0,2.0,97,0.00,,,0.00,weatherlink.com 1.10,2013-07-05 09:24:00,
2013-07-05 05:39:00,71.9,71.0,30.14,ESE,123,1.0,4.0,96,0.00,,,0.00,weatherlink.com 1.10,2013-07-05 09:39:00,
2013-07-05 05:54:00,72.2,71.0,30.14,ESE,121,1.0,4.0,95,0.00,,,0.00,weatherlink.com 1.10,2013-07-05 09:54:00,
2013-07-05 06:09:00,72.3,71.0,30.14,ESE,120,0.0,1.0,94,0.00,,,0.00,weatherlink.com 1.10,2013-07-05 10:09:00,
2013-07-05 06:24:00,72.4,71.0,30.14,ESE,121,0.0,1.0,95,0.00,,,0.00,weatherlink.com 1.10,2013-07-05 10:24:00,
2013-07-05 06:39:00,72.8,71.0,30.15,SE,126,0.0,2.0,95,0.00,,,0.00,weatherlink.com 1.10,2013-07-05 10:39:00,
2013-07-05 07:09:00,73.7,72.0,30.14,SSW,196,0.0,1.0,94,0.00,,,0.00,weatherlink.com 1.10,2013-07-05 11:09:00,
2013-07-05 07:24:00,74.1,72.0,30.15,SW,215,0.0,2.0,92,0.00,,,0.00,weatherlink.com 1.10,2013-07-05 11:24:00,
2013-07-05 07:39:00,74.7,72.0,30.15,SW,215,0.0,1.0,91,0.00,,,0.00,weatherlink.com 1.10,2013-07-05 11:39:00,
2013-07-05 07:54:00,75.5,73.0,30.15,WSW,241,0.0,2.0,90,0.00,,,0.00,weatherlink.com 1.10,2013-07-05 11:54:00,
2013-07-05 08:09:00,76.2,73.0,30.15,SSW,202,0.0,1.0,89,0.00,,,0.00,weatherlink.com 1.10,2013-07-05 12:09:00,
2013-07-05 08:24:00,76.7,73.0,30.15,WSW,239,2.0,3.0,87,0.00,,,0.00,weatherlink.com 1.10,2013-07-05 12:24:00,
2013-07-05 08:39:00,76.8,72.0,30.15,West,269,0.0,5.0,86,0.00,,,0.00,weatherlink.com 1.10,2013-07-05 12:39:00,